Tracking 19245 objects as of 21-Aug-2018
HD Live streaming from Space Station
objects crossing your sky now

SCOUT A R/B

Track SCOUT A R/B now!
10-day predictions


NORAD ID: 2120
Int'l Code: 1966-024B
Perigee: 887.4 km
Apogee: 1,111.5 km
Inclination: 89.7 °
Period: 105.0 minutes
Semi major axis: 7370 km
RCS: 0.668 m2 (medium)
Launch date: March 26, 1966
Source: United States (US)
Launch site: AIR FORCE WESTERN TEST RANGE (AFWTR)

Note: This is a ROCKET BODY
aabbcc
Your satellite tracking list
Your tracking list is empty




NASA's NSSDC Master Catalog

Two Line Element Set (TLE):
1 02120U 66024B   18232.50551305  .00000047  00000-0  35903-4 0  9998
2 02120  89.7472 231.7089 0151988 156.1682 204.6617 13.72030137620488
Source of the keplerian elements: AFSPC